Regional Weather Roundup
Issued by NWS

Home | Current Version | Previous Version | Graphics & Text | Print | Product List | Glossary On
Versions: 1 2 3 4 5 6 7 8 9 10 11 12 13 14 15 16 17 18 19 20 21 22 23 24 25 26 27 28 29 30 31 32 33 34 35 36 37 38 39 40 41 42 43 44 45 46 47 48 49 50
000
ASUS43 KMPX 231710
RWRMN
WEATHER ROUNDUP FOR MINNESOTA
NATIONAL WEATHER SERVICE TWIN CITIES/CHANHASSEN MN
1200 PM CDT WED AUG 23 2017


NOTE: "FAIR" INDICATES FEW OR NO CLOUDS BELOW 12,000 FEET WITH NO
SIGNIFICANT WEATHER AND/OR OBSTRUCTIONS TO VISIBILITY. N/A MEANS
CURRENT SKY AND/OR WEATHER CONDITIONS ARE NOT AVAILABLE.

MNZ060>063-068>070-231800-
   Twin Cities Metro

CITY           SKY/WX    TMP DP  RH WIND       PRES   REMARKS
TWIN CITIES    MOSUNNY   71  52  50 N13       30.10S
ST PAUL        SUNNY     70  55  59 VRB6      30.10F
CRYSTAL        SUNNY     70  50  49 N8        30.09F
BLAINE         MOSUNNY   70  54  56 N6        30.10F
LAKEVILLE      SUNNY     70  54  56 NW7       30.11S
EDEN PRAIRIE   SUNNY     71  51  49 NW13G18   30.10S
SOUTH ST PAUL  SUNNY     70  51  50 N10       30.10S
LAKE ELMO      FAIR      68  54  60 NW10      30.11F
$$
MNZ001>005-007-008-013>017-022>024-027-028-231800-
   Northwest Minnesota

CITY           SKY/WX    TMP DP  RH WIND       PRES   REMARKS
BEMIDJI        CLOUDY    63  48  59 CALM      30.12S
HALLOCK        CLOUDY    64  54  68 E5        30.10F
ROSEAU           N/A     57  54  88 CALM      30.13S
WARROAD        CLOUDY    59  54  82 CALM      30.13S
THIEF RVR FALL CLOUDY    66  50  56 E6        30.11F
CROOKSTON      SUNNY     68  52  56 CALM      30.10F
FOSSTON        SUNNY     68  57  68 NE6       30.11F
DETROIT LAKES  SUNNY     68  50  52 CALM      30.12S
MOORHEAD       SUNNY     70  48  46 E3        30.10F
PARK RAPIDS    SUNNY     67  52  58 NE6       30.11F
MAHNOMEN       FAIR      67  52  58 NE6       30.11S
$$
MNZ006-009>011-018-025>026-231800-
   North Central Minnesota

CITY           SKY/WX    TMP DP  RH WIND       PRES   REMARKS
BAUDETTE       CLOUDY    61  52  72 CALM      30.12S
FLAG ISLAND    MOSUNNY   59  48  67 CALM      30.12R
INTL FALLS     PTSUNNY   60  47  61 N7        30.12R
WASKISH        CLOUDY    63  54  72 W6        30.12S
BIG FORK       CLOUDY    64  50  59 CALM      30.11F
LONGVILLE      MOSUNNY   64  48  55 NW5       30.11F
GRAND RAPIDS   PTSUNNY   62  49  62 N6        30.13F
CRANE LAKE     PTSUNNY   57  46  67 NE3       30.13F
ORR            SUNNY     63  45  51 NW7       30.09S
COOK           MOSUNNY   61  46  59 NW5       30.11F
WALKER         PTSUNNY   63  51  66 CALM      30.12S
$$
MNZ012-019>021-037-231800-
   Northeast Minnesota

CITY           SKY/WX    TMP DP  RH WIND       PRES   REMARKS
DULUTH         PTSUNNY   63  48  58 W9        30.09F
ELY            PTSUNNY   57  43  58 NW7       30.11S
HIBBING        PTSUNNY   60  48  64 N12       30.11S
EVELETH        MOSUNNY   61  37  40 N6        30.11F
DULUTH HARBOR  MOSUNNY   66  52  59 N8        30.10S
TWO HARBORS    PTSUNNY   66  52  59 N3        30.08R
SILVER BAY     PTSUNNY   63  46  55 N7        30.08R
GRAND MARAIS     N/A     66  39  37 VRB6      30.06S
G MARAIS ARPRT SUNNY     57  32  38 NW9       30.08R
$$
MNZ029>031-032-039>041-046>048-054>057-064-231800-
   West Central Minnesota

CITY           SKY/WX    TMP DP  RH WIND       PRES   REMARKS
FERGUS FALLS   SUNNY     70  50  49 CALM      30.10F
WHEATON        SUNNY     72  48  43 NE3       30.12S
MORRIS         SUNNY     73  48  40 SW3       30.11S
ALEXANDRIA     SUNNY     71  49  45 N5        30.13F
ELBOW LAKE     FAIR      70  54  56 CALM      30.12F
WADENA         SUNNY     68  52  56 NE5       30.11S
GLENWOOD       SUNNY     72  48  43 N6        30.13S
APPLETON       SUNNY     72  48  43 CALM      30.11F
BENSON         SUNNY     73  46  38 NW3       30.13F
ORTONVILLE     SUNNY     73  52  46 MISG      30.11F
MADISON        SUNNY     75  52  43 CALM      30.11F
WILLMAR        FAIR      72  52  49 CALM      30.14S
$$
MNZ033>034-036-042>043-049>051-058-059-231800-
   Central Minnesota

CITY           SKY/WX    TMP DP  RH WIND       PRES   REMARKS
ST CLOUD       SUNNY     69  54  58 VRB6      30.11F
SAUK CENTRE    FAIR      69  51  51 N6        30.12S
PAYNESVILLE    SUNNY     70  51  49 NW7       30.12F
AITKIN         PTSUNNY   63  48  59 N8        30.10S
PINE RIVER     MOSUNNY   63  48  59 NW3       30.14S
BRAINERD       MOSUNNY   66  51  58 N12       30.12S
STAPLES        SUNNY     68  48  49 NW8       30.11F
LONG PRAIRIE   FAIR      68  50  52 W3        30.13S
LITTLE FALLS   SUNNY     68  50  52 NW3       30.11F
LITCHFIELD     SUNNY     73  54  49 CALM      30.13S
BUFFALO        SUNNY     69  51  53 NW8       30.13S
MAPLE LAKE     SUNNY     70  55  58 NW9       30.13S
HUTCHINSON     CLOUDY    72  55  54 W5        30.13F
$$
MNZ037-044-045-052-053-231800-
   East Central Minnesota

CITY           SKY/WX    TMP DP  RH WIND       PRES   REMARKS
PRINCETON      SUNNY     72  54  53 W5        30.11F
MORA           MOSUNNY   64  50  59 NW9       30.13S
CAMBRIDGE      MOSUNNY   70  54  56 NW7       30.11F
RUSH CITY      MOSUNNY   67  52  58 NW6       30.11F HAZE
MOOSE LAKE     PTSUNNY   64  48  55 N6        30.09S
HINCKLEY       PTSUNNY   64  52  63 N6        30.11S
CLOQUET        MOSUNNY   63  45  51 NW10      30.10F
MCGREGOR       PTSUNNY   64  48  55 NW7       30.12S
$$
MNZ071>073-080-081-089-090-097-098-231800-
   Southwest Minnesota

CITY           SKY/WX    TMP DP  RH WIND       PRES   REMARKS
MONTEVIDEO     SUNNY     75  61  60 CALM      30.13S
GRANITE FALLS  SUNNY     72  55  54 CALM      30.14F
CANBY          SUNNY     75  44  33 CALM      30.13F
MARSHALL       SUNNY     73  48  41 CALM      30.13S
REDWOOD FALLS  SUNNY     72  50  45 NW6       30.13S
OLIVIA         SUNNY     72  52  49 W7        30.13S
PIPESTONE      MOSUNNY   73  54  49 SW6       30.14F
WINDOM         SUNNY     73  48  40 W7        30.14S
WORTHINGTON    MOSUNNY   72  51  47 W6        30.16S
JACKSON        SUNNY     72  46  40 CALM      30.16R
TRACY          SUNNY     73  53  50 N3        30.14S
SLAYTON        PTSUNNY   69  48  45 W5        30.16S
$$
MNZ065>067-074>077-082>085-091>093-231800-
   South Central Minnesota

CITY           SKY/WX    TMP DP  RH WIND       PRES   REMARKS
MANKATO        SUNNY     69  53  56 W7        30.13S
NEW ULM        SUNNY     72  54  53 W8        30.13S
ST JAMES       SUNNY     72  52  49 W6        30.14S
FAIRMONT       SUNNY     72  47  40 NW9       30.14S
GLENCOE        SUNNY     71  56  59 W3        30.12S
FARIBAULT      SUNNY     72  55  56 W8        30.12S
OWATONNA       SUNNY     72  55  56 W7        30.12S
WASECA         SUNNY     70  54  56 NW5       30.14S
ALBERT LEA     SUNNY     73  54  49 NW6       30.13F
$$
MNZ078>079-086>088-094>096-231800-
   Southeast Minnesota

CITY           SKY/WX    TMP DP  RH WIND       PRES   REMARKS
ROCHESTER      SUNNY     69  55  60 W10       30.12S
RED WING       MOSUNNY   72  52  49 NW9       30.09S
STANTON        SUNNY     71  54  55 NW8       30.10S
DODGE CENTER   SUNNY     70  54  56 NW10      30.12S
WINONA         SUNNY     70  52  52 NW12      30.10S
AUSTIN         SUNNY     70  52  52 NW10      30.12S
PRESTON        SUNNY     68  51  55 NW10      30.12S
$$
ABBREVIATIONS USED IN REMARKS
   TC - TEMPERATURES IN CELSIUS
  WCI - WIND CHILL INDEX
   HX - HEAT INDEX
  VSB - VISIBILITY
$$




USA.gov is the U.S. government's official web portal to all federal, state and local government web resources and services.